Rhinelander, WI

8:31 PM CST on January 17, 2018 (GMT -0600)
Rhinelander-Oneida County

Weather History for KRHI - March, 2013

Change the Weather History Date:

Monday, March 25, 2013

  Actual Average Record
Temperature  
Mean Temperature 26 °F 31 °F  
Max Temperature 34 °F 41 °F 66 °F (1925)
Min Temperature 18 °F 21 °F -15 °F (1974)
Degree Days  
Heating Degree Days 39 34  
Month to date heating degree days 1126 980  
Since 1 July heating degree days 7526 7602  
Cooling Degree Days 0 0  
Month to date cooling degree days 0 0  
Year to date cooling degree days 0 0  
Moisture  
Dew Point 18 °F    
Average Humidity 74    
Maximum Humidity 92    
Minimum Humidity 56    
Precipitation  
Precipitation T in 0.05 in 0.87 in (1996)
Month to date precipitation 1.47 1.21  
Year to date precipitation 4.27 3.25  
Snow  
Snow T in - 8.50 in (1996)
Month to date snowfall 15.3  
Since 1 July snowfall 67.9  
Snow Depth 20.00 in    
Sea Level Pressure  
Sea Level Pressure 30.04 in    
Wind  
Wind Speed 7 mph (North)    
Max Wind Speed 16 mph    
Max Gust Speed 26 mph    
Visibility 10 miles    
Events      
T = Trace of Precipitation, MM = Missing Value Source: NWS Daily Summary

Daily Weather History Graph

Daily Weather History Graph

Search for Another Location

Airport or City:

Trip Planner

Search our weather history database for the weather conditions in past years. The results will help you decide how hot, cold, wet, or windy it might be!

Date:

Astronomy

Mar. 25, 2013 Rise Set
Actual Time 6:50 AM CDT 7:17 PM CDT
Civil Twilight 6:21 AM CDT 7:47 PM CDT
Nautical Twilight 5:46 AM CDT 8:22 PM CDT
Astronomical Twilight 5:09 AM CDT 8:58 PM CDT
Moon 5:46 PM CDT (3/25) 5:38 AM CDT (3/25)
Length of Visible Light 13h 25m
Length of Day
12h 26m
Waxing Gibbous, 96% of the Moon is Illuminated
Mar 25
Waxing Gibbous
Mar 27
Full
Apr 2
Last Quarter
Apr 10
New
Apr 18
First Quarter

Hourly Weather History & Observations

Time (CDT) Temp. Windchill Dew Point Humidity Pressure Visibility Wind Dir Wind Speed Gust Speed Precip Events Conditions
12:53 AM 19.0 °F 10.0 °F 15.1 °F 85% 29.99 in 10.0 mi North 6.9 mph - N/A   Clear
1:53 AM 19.0 °F 11.1 °F 15.1 °F 85% 29.98 in 10.0 mi North 5.8 mph - N/A   Clear
2:53 AM 18.0 °F 12.7 °F 15.1 °F 88% 29.99 in 10.0 mi North 3.5 mph - N/A   Clear
3:53 AM 18.0 °F 9.8 °F 15.1 °F 88% 29.98 in 10.0 mi North 5.8 mph - N/A   Partly Cloudy
4:37 AM 19.4 °F 14.3 °F 15.8 °F 86% 29.90 in 10.0 mi NNE 3.5 mph - N/A   Mostly Cloudy
4:46 AM 19.4 °F 12.8 °F 15.8 °F 86% 29.90 in 10.0 mi North 4.6 mph - N/A   Overcast
4:53 AM 19.9 °F 13.4 °F 16.0 °F 85% 29.97 in 10.0 mi North 4.6 mph - N/A   Overcast
5:53 AM 21.0 °F 14.6 °F 17.1 °F 85% 29.97 in 10.0 mi North 4.6 mph - N/A   Overcast
6:53 AM 21.9 °F 17.2 °F 18.0 °F 85% 29.99 in 10.0 mi North 3.5 mph - N/A   Overcast
7:53 AM 24.1 °F 19.7 °F 19.9 °F 84% 30.00 in 10.0 mi North 3.5 mph - N/A   Overcast
8:16 AM 24.8 °F 19.1 °F 19.4 °F 80% 29.94 in 10.0 mi North 4.6 mph - N/A   Overcast
8:53 AM 27.0 °F 18.0 °F 21.0 °F 78% 30.01 in 10.0 mi NNE 9.2 mph 16.1 mph N/A   Overcast
9:53 AM 28.0 °F 16.1 °F 19.0 °F 69% 30.03 in 10.0 mi NNE 16.1 mph 26.5 mph N/A   Overcast
10:53 AM 28.9 °F 20.4 °F 19.0 °F 67% 30.04 in 10.0 mi NNE 9.2 mph 18.4 mph N/A   Overcast
11:53 AM 30.9 °F 20.7 °F 19.9 °F 64% 30.05 in 10.0 mi North 13.8 mph 19.6 mph N/A   Overcast
1:13 PM 33.8 °F 25.8 °F 19.4 °F 56% 29.97 in 10.0 mi NE 10.4 mph - N/A   Overcast
1:53 PM 33.1 °F 25.5 °F 19.0 °F 56% 30.04 in 10.0 mi NNE 9.2 mph - N/A   Overcast
2:53 PM 34.0 °F 26.0 °F 19.0 °F 54% 30.04 in 10.0 mi NNW 10.4 mph 17.3 mph N/A   Overcast
3:53 PM 33.1 °F 25.5 °F 19.9 °F 59% 30.06 in 10.0 mi North 9.2 mph - N/A   Overcast
4:31 PM 32.0 °F 25.6 °F 21.2 °F 64% 30.00 in 10.0 mi North 6.9 mph 21.9 mph N/A   Overcast
4:53 PM 30.9 °F 21.7 °F 21.0 °F 67% 30.07 in 10.0 mi NNW 11.5 mph 18.4 mph N/A   Overcast
5:53 PM 30.0 °F 21.1 °F 19.0 °F 64% 30.10 in 10.0 mi North 10.4 mph 17.3 mph N/A   Overcast
6:53 PM 28.0 °F 18.6 °F 18.0 °F 66% 30.13 in 10.0 mi NNE 10.4 mph 18.4 mph N/A   Overcast
7:53 PM 27.0 °F 23.0 °F 17.1 °F 66% 30.14 in 10.0 mi Variable 3.5 mph - N/A   Overcast
8:53 PM 27.0 °F 20.5 °F 16.0 °F 63% 30.15 in 10.0 mi North 5.8 mph - N/A   Overcast
9:53 PM 27.0 °F 19.5 °F 17.1 °F 66% 30.17 in 10.0 mi North 6.9 mph - N/A   Overcast
10:53 PM 26.1 °F 20.5 °F 17.1 °F 69% 30.18 in 10.0 mi North 4.6 mph - N/A   Overcast
11:50 PM 26.6 °F - 17.6 °F 69% 30.11 in 10.0 mi Calm Calm - N/A   Overcast
11:53 PM 26.1 °F - 16.0 °F 66% 30.18 in 10.0 mi Calm Calm - N/A   Overcast